Forum Crazy Orc - Centre de statistiques

Statistiques générales

Total des membres:
922
Total des messages:
95 841
Total des sujets:
3 921
Total des catégories:
4
Membres en ligne:
38
Connexions simultanées:
808 - 21 janvier 2020 à 20:55:59
En ligne aujourd'hui:
40
Total des pages vues:
30 533 262
Moyenne des inscriptions par jour:
0,25
Moyenne des messages par jour:
25,67
Moyenne des sujets par jour:
1,13
Total des sections:
40
Dernier membre:
DeReel
Moyenne d'utilisateurs connectés par jour:
46,87
Ratio hommes/femmes:
7.1:1
Pages vues en moyenne par jour:
5 612,73

Top lanceurs de sujets

nunch
600
ManuDevil
287
GroumpH
246
Morithil
229
Scratchy
132
MAO
110
LeDupontesque
105
jules
99
snake
92
CCCP
84

Temps de connexion cumulé

Mandy
133j 19h 59m
GroumpH
112j 9h 9m
CCCP
85j 1h 49m
Nukeflow
73j 8h 19m
ManuDevil
67j 4h 45m
Felipe
61j 12h 19m
dao
56j 17h 54m
nunch
49j 26m
Rh
42j 23h 32m
Patate
41j 37m

Historique du forum (basé sur l'heure interne du forum)

Résumé annuel Nouveaux sujets Nouveaux messages Nouveaux membres Connexions simultanées Pages vues
* 2022 20 55 9 70 279 529
Janvier 2022 20 55 9 70 279 529
* 2021 129 756 53 338 4 376 522
Décembre 2021 8 37 0 129 661 064
Novembre 2021 13 99 4 153 262 314
Octobre 2021 20 208 15 159 298 103
Septembre 2021 24 171 10 280 285 455
Août 2021 11 33 7 73 231 609
Juillet 2021 6 8 2 81 305 173
Juin 2021 17 31 2 135 311 168
Mai 2021 3 31 4 268 597 777
Avril 2021 10 51 6 287 308 355
Mars 2021 7 24 1 308 444 900
Février 2021 5 29 2 338 223 056
Janvier 2021 5 34 0 322 447 548
* 2020 206 1 716 105 808 4 713 463
Décembre 2020 6 38 2 320 310 487
Novembre 2020 12 97 3 352 464 426
Octobre 2020 21 169 7 346 497 422
Septembre 2020 30 356 15 133 325 183
Août 2020 16 147 7 163 471 897
Juillet 2020 16 77 2 100 345 760
Juin 2020 17 60 5 127 452 817
2020-06-01 0 1 0 97 7 843
2020-06-02 7 8 0 99 6 624
2020-06-03 0 0 0 116 9 483
2020-06-04 0 0 0 127 10 949
2020-06-05 0 0 0 54 8 472
2020-06-06 0 0 0 60 11 941
2020-06-07 0 3 0 60 62 107
2020-06-08 0 1 1 59 116 791
2020-06-09 0 1 0 67 15 021
2020-06-10 2 6 0 51 11 623
2020-06-11 0 0 0 50 8 819
2020-06-12 0 0 0 54 9 812
2020-06-13 0 0 1 57 9 517
2020-06-14 0 1 0 54 10 890
2020-06-15 2 5 0 50 11 230
2020-06-16 0 3 0 66 11 587
2020-06-17 0 0 1 53 7 877
2020-06-18 0 0 0 53 7 889
2020-06-19 0 0 0 47 8 061
2020-06-20 0 1 0 49 10 663
2020-06-21 0 0 0 49 8 505
2020-06-22 0 2 0 51 8 058
2020-06-23 0 1 0 50 9 272
2020-06-24 1 7 1 59 9 508
2020-06-25 0 4 0 53 9 909
2020-06-26 0 1 0 53 10 161
2020-06-27 0 0 1 58 11 373
2020-06-28 0 0 0 63 8 637
2020-06-29 5 12 0 67 8 575
2020-06-30 0 3 0 56 11 620
Mai 2020 7 22 3 295 321 652
Avril 2020 10 47 1 189 300 030
Mars 2020 24 253 3 199 467 854
Février 2020 18 171 9 323 281 798
2020-02-01 0 6 1 110 22 857
2020-02-02 0 4 0 113 19 748
2020-02-03 3 6 2 225 8 437
2020-02-04 0 4 0 323 5 481
2020-02-05 0 1 1 124 6 151
2020-02-06 0 4 0 123 9 304
2020-02-07 0 5 0 154 11 432
2020-02-08 0 4 0 133 9 152
2020-02-09 0 3 0 131 10 284
2020-02-10 0 2 0 110 5 432
2020-02-11 3 10 0 135 4 471
2020-02-12 0 5 0 126 6 869
2020-02-13 0 5 0 128 11 009
2020-02-14 1 4 0 156 5 546
2020-02-15 0 2 0 171 6 296
2020-02-16 0 5 1 133 5 755
2020-02-17 4 21 1 132 8 743
2020-02-18 0 18 0 138 7 508
2020-02-19 0 2 0 137 7 400
2020-02-20 0 12 0 143 8 914
2020-02-21 1 9 1 154 8 884
2020-02-22 0 15 0 167 11 618
2020-02-23 0 1 0 164 12 863
2020-02-24 5 10 0 167 13 726
2020-02-25 0 1 0 196 13 396
2020-02-26 1 4 0 188 11 554
2020-02-27 0 5 1 132 9 231
2020-02-28 0 3 0 145 10 882
2020-02-29 0 0 1 132 8 855
Janvier 2020 29 279 48 808 474 137
* 2019 246 3 411 313 446 3 308 531
Décembre 2019 18 159 26 446 351 248
Novembre 2019 16 245 33 325 524 135
Octobre 2019 24 272 59 121 189 762
Septembre 2019 25 386 54 141 376 708
Août 2019 22 257 31 122 225 760
Juillet 2019 24 281 62 149 190 301
Juin 2019 11 171 3 112 246 519
Mai 2019 23 311 10 167 218 891
Avril 2019 21 294 9 174 311 459
Mars 2019 22 372 16 142 344 146
Février 2019 18 288 4 110 142 132
Janvier 2019 22 375 6 113 187 470
* 2018 338 6 176 81 641 2 624 946
Décembre 2018 43 306 8 253 421 582
Novembre 2018 26 467 9 641 383 363
Octobre 2018 34 527 6 321 248 725
Septembre 2018 34 641 10 127 216 306
Août 2018 32 583 16 101 188 648
Juillet 2018 21 386 3 104 182 475
Juin 2018 31 442 3 110 213 303
Mai 2018 21 422 4 107 174 393
Avril 2018 25 564 5 104 159 849
Mars 2018 20 634 4 96 152 933
Février 2018 25 631 7 93 121 912
Janvier 2018 26 573 6 94 161 457
* 2017 346 6 100 56 180 1 675 168
Décembre 2017 37 499 6 91 136 063
Novembre 2017 37 675 6 93 169 670
Octobre 2017 15 426 2 93 151 449
Septembre 2017 28 548 5 94 135 543
Août 2017 29 384 6 99 148 097
Juillet 2017 25 490 5 87 176 472
2017-07-01 0 15 0 70 4 062
2017-07-02 0 3 1 65 3 539
2017-07-03 1 23 1 62 3 836
2017-07-04 1 26 0 72 3 952
2017-07-05 1 10 0 61 4 350
2017-07-06 1 29 0 87 4 569
2017-07-07 0 20 1 77 4 031
2017-07-08 1 22 0 69 5 874
2017-07-09 0 19 0 69 7 487
2017-07-10 0 17 0 72 5 879
2017-07-11 1 4 0 67 7 492
2017-07-12 0 5 0 71 6 813
2017-07-13 1 4 0 79 25 553
2017-07-14 0 5 0 87 5 690
2017-07-15 0 5 0 72 4 170
2017-07-16 2 18 0 78 4 326
2017-07-17 5 25 0 73 4 689
2017-07-18 0 17 1 76 4 440
2017-07-19 1 19 0 83 3 965
2017-07-20 0 12 0 76 4 047
2017-07-21 1 19 1 75 5 666
2017-07-22 1 10 0 72 4 430
2017-07-23 2 22 0 77 5 427
2017-07-24 0 21 0 83 6 448
2017-07-25 1 16 0 69 4 956
2017-07-26 3 31 0 84 5 953
2017-07-27 0 21 0 75 5 107
2017-07-28 0 12 0 70 6 063
2017-07-29 0 18 0 72 5 667
2017-07-30 1 9 0 67 4 294
2017-07-31 1 13 0 68 3 697
Juin 2017 33 603 4 89 156 248
Mai 2017 26 470 2 99 181 189
Avril 2017 31 490 5 180 139 896
Mars 2017 27 432 3 119 90 981
2017-03-01 1 13 0 20 1 366
2017-03-02 1 7 1 15 939
2017-03-03 4 15 0 16 1 322
2017-03-04 1 4 1 14 1 224
2017-03-05 0 11 0 14 760
2017-03-06 1 36 1 17 1 184
2017-03-07 0 14 0 18 1 120
2017-03-08 2 22 0 19 1 229
2017-03-09 1 23 0 15 1 153
2017-03-10 0 22 0 15 1 149
2017-03-11 0 15 0 16 1 171
2017-03-12 3 16 0 91 4 295
2017-03-13 0 14 0 91 4 471
2017-03-14 1 18 0 79 3 743
2017-03-15 0 9 0 71 3 377
2017-03-16 1 16 0 70 3 703
2017-03-17 0 8 0 73 3 263
2017-03-18 0 13 0 64 3 669
2017-03-19 0 9 0 92 3 639
2017-03-20 0 11 0 90 4 905
2017-03-21 2 6 0 83 5 720
2017-03-22 2 14 0 95 4 760
2017-03-23 1 9 0 66 6 486
2017-03-24 2 12 0 65 2 928
2017-03-25 0 15 0 67 3 275
2017-03-26 2 8 0 55 1 890
2017-03-27 0 16 0 119 3 309
2017-03-28 1 17 0 87 4 615
2017-03-29 0 20 0 86 4 109
2017-03-30 1 7 0 69 3 543
2017-03-31 0 12 0 73 2 664
Février 2017 31 587 7 87 74 924
Janvier 2017 27 496 5 80 114 636
* 2016 389 7 721 79 245 2 075 605
Décembre 2016 34 533 2 170 118 206
2016-12-01 0 1 0 74 3 445
2016-12-02 0 8 0 55 3 761
2016-12-03 0 7 0 58 2 184
2016-12-04 9 30 0 53 2 958
2016-12-05 0 35 0 65 4 219
2016-12-06 2 23 0 64 3 665
2016-12-07 1 23 0 60 4 594
2016-12-08 2 17 0 125 6 276
2016-12-09 1 21 0 76 3 458
2016-12-10 2 15 2 61 3 661
2016-12-11 1 37 0 68 3 369
2016-12-12 3 11 0 63 2 902
2016-12-13 0 10 0 59 3 821
2016-12-14 1 18 0 74 4 666
2016-12-15 0 18 0 72 3 378
2016-12-16 1 19 0 35 2 487
2016-12-17 0 8 0 73 2 573
2016-12-18 0 11 0 81 15 525
2016-12-19 1 15 0 61 3 437
2016-12-20 0 9 0 56 3 667
2016-12-21 0 15 0 54 2 974
2016-12-22 0 25 0 56 2 993
2016-12-23 0 13 0 56 3 867
2016-12-24 0 10 0 55 2 712
2016-12-25 1 11 0 170 3 278
2016-12-26 3 10 0 72 3 609
2016-12-27 3 23 0 59 2 265
2016-12-28 1 21 0 51 3 618
2016-12-29 0 34 0 55 2 903
2016-12-30 2 13 0 58 3 351
2016-12-31 0 22 0 54 2 590
Novembre 2016 34 586 6 245 122 991
Octobre 2016 43 726 7 191 160 217
Septembre 2016 26 657 9 85 157 449
Août 2016 31 721 9 114 169 873
Juillet 2016 19 513 3 58 166 690
Juin 2016 30 565 5 53 211 715
Mai 2016 40 1 116 8 94 166 514
Avril 2016 27 529 7 65 155 208
2016-04-01 3 38 2 30 3 618
2016-04-02 0 23 1 23 3 917
2016-04-03 3 45 1 65 6 292
2016-04-04 3 45 0 31 4 738
2016-04-05 0 6 0 26 3 350
2016-04-06 0 15 0 22 4 462
2016-04-07 1 13 1 21 3 485
2016-04-08 0 9 0 23 3 328
2016-04-09 2 17 0 24 3 870
2016-04-10 0 13 0 25 4 267
2016-04-11 0 19 0 55 6 024
2016-04-12 1 16 0 59 14 106
2016-04-13 4 14 0 59 11 237
2016-04-14 0 14 0 52 5 426
2016-04-15 1 14 0 20 3 457
2016-04-16 0 7 0 50 5 198
2016-04-17 0 2 0 49 5 204
2016-04-18 1 17 1 20 4 013
2016-04-19 0 11 1 20 3 807
2016-04-20 1 17 0 23 3 488
2016-04-21 0 16 0 25 3 419
2016-04-22 0 21 0 37 4 063
2016-04-23 0 8 0 36 4 166
2016-04-24 1 14 0 37 5 654
2016-04-25 2 25 0 65 6 602
2016-04-26 0 16 0 63 5 983
2016-04-27 0 20 0 49 6 244
2016-04-28 1 12 0 54 6 223
2016-04-29 3 29 0 22 4 065
2016-04-30 0 13 0 56 5 502
Mars 2016 35 513 11 88 224 056
Février 2016 35 640 4 96 192 454
Janvier 2016 35 622 8 95 230 232
* 2015 373 6 684 79 100 1 549 803
Décembre 2015 28 499 7 68 140 303
2015-12-01 0 25 0 16 2 350
2015-12-02 0 13 0 16 2 355
2015-12-03 1 32 1 21 3 677
2015-12-04 0 20 0 17 2 064
2015-12-05 0 16 1 21 3 894
2015-12-06 0 13 0 20 5 745
2015-12-07 0 6 0 35 3 625
2015-12-08 1 17 0 32 4 443
2015-12-09 0 4 0 35 7 622
2015-12-10 1 6 0 32 5 400
2015-12-11 0 19 0 35 19 913
2015-12-12 1 21 1 25 3 299
2015-12-13 7 38 0 30 4 377
2015-12-14 0 26 0 27 3 642
2015-12-15 2 29 1 32 5 486
2015-12-16 4 39 0 37 6 111
2015-12-17 0 14 0 18 3 269
2015-12-18 0 17 0 13 2 944
2015-12-19 1 16 0 18 3 387
2015-12-20 0 14 0 17 3 339
2015-12-21 0 2 0 14 2 174
2015-12-22 0 0 1 21 3 147
2015-12-23 2 10 0 14 2 552
2015-12-24 1 11 0 43 2 912
2015-12-25 2 20 0 13 2 346
2015-12-26 0 10 0 12 2 235
2015-12-27 1 11 0 10 6 406
2015-12-28 3 29 1 65 5 360
2015-12-29 0 2 1 53 4 266
2015-12-30 1 12 0 68 5 376
2015-12-31 0 7 0 57 6 587
Novembre 2015 40 724 5 35 146 607
Octobre 2015 32 760 10 84 227 528
Septembre 2015 40 948 13 100 169 012
Août 2015 36 566 12 61 119 954
Juillet 2015 29 462 7 31 89 666
Juin 2015 24 453 5 30 112 317
Mai 2015 30 390 2 24 73 874
Avril 2015 29 408 4 25 95 371
2015-04-01 1 15 0 20 2 794
2015-04-02 1 21 0 16 2 834
2015-04-03 0 14 0 17 2 508
2015-04-04 0 8 0 15 1 598
2015-04-05 0 4 0 16 4 225
2015-04-06 1 5 0 22 4 037
2015-04-07 1 8 0 17 3 300
2015-04-08 0 16 0 22 2 846
2015-04-09 0 3 0 18 3 300
2015-04-10 2 18 0 22 3 304
2015-04-11 1 19 1 18 3 102
2015-04-12 0 7 1 12 2 663
2015-04-13 1 10 0 14 3 621
2015-04-14 0 16 0 25 2 946
2015-04-15 0 5 0 17 2 800
2015-04-16 0 3 0 19 3 815
2015-04-17 1 9 0 16 3 313
2015-04-18 0 11 0 16 3 035
2015-04-19 0 5 0 16 4 184
2015-04-20 1 8 0 16 2 818
2015-04-21 0 1 0 18 2 616
2015-04-22 1 13 0 18 2 909
2015-04-23 0 19 0 24 4 246
2015-04-24 0 18 0 18 3 149
2015-04-25 8 32 1 17 3 211
2015-04-26 4 35 0 20 3 250
2015-04-27 3 35 0 18 3 609
2015-04-28 0 6 0 13 3 318
2015-04-29 2 23 1 16 3 839
2015-04-30 1 21 0 16 2 181
Mars 2015 38 550 7 37 130 116
Février 2015 15 434 2 24 123 854
Janvier 2015 32 490 5 44 121 201
* 2014 428 7 364 58 58 2 478 164
Décembre 2014 24 360 4 33 191 610
Novembre 2014 37 572 7 46 525 858
Octobre 2014 45 928 8 58 364 915
Septembre 2014 24 549 8 32 162 413
Août 2014 17 251 4 27 191 624
Juillet 2014 25 369 3 30 236 312
Juin 2014 29 602 3 32 220 918
Mai 2014 34 842 6 29 157 174
Avril 2014 45 662 1 25 104 486
Mars 2014 32 595 4 26 120 439
2014-03-01 0 12 1 20 3 786
2014-03-02 1 4 1 24 3 590
2014-03-03 0 7 0 20 2 446
2014-03-04 0 23 0 20 3 629
2014-03-05 2 22 0 21 3 661
2014-03-06 1 18 0 20 2 585
2014-03-07 0 15 0 23 2 700
2014-03-08 1 13 0 21 2 461
2014-03-09 0 4 0 19 2 983
2014-03-10 0 19 0 16 2 791
2014-03-11 1 19 0 19 3 130
2014-03-12 0 16 0 21 3 522
2014-03-13 1 31 0 22 5 550
2014-03-14 0 16 0 26 4 818
2014-03-15 1 11 0 21 5 306
2014-03-16 4 19 0 24 6 026
2014-03-17 3 25 0 20 3 862
2014-03-18 2 35 0 22 5 721
2014-03-19 0 19 0 21 4 981
2014-03-20 1 25 1 18 3 637
2014-03-21 1 27 0 24 5 005
2014-03-22 1 13 0 20 4 151
2014-03-23 4 27 0 20 5 982
2014-03-24 2 46 0 21 4 374
2014-03-25 0 26 0 18 2 690
2014-03-26 2 23 1 19 3 653
2014-03-27 0 19 0 20 3 562
2014-03-28 3 18 0 20 3 984
2014-03-29 0 17 0 17 3 432
2014-03-30 0 7 0 17 2 121
2014-03-31 1 19 0 18 4 300
Février 2014 24 660 5 28 102 996
Janvier 2014 92 974 5 33 99 419
* 2013 408 8 887 76 89 1 597 727
Décembre 2013 36 785 2 79 132 305
2013-12-01 3 40 0 21 5 124
2013-12-02 0 18 0 23 3 630
2013-12-03 1 22 0 18 2 691
2013-12-04 0 21 0 20 2 917
2013-12-05 2 34 1 74 3 596
2013-12-06 0 14 0 29 4 033
2013-12-07 0 11 0 21 3 141
2013-12-08 2 50 0 20 11 319
2013-12-09 3 47 0 79 15 790
2013-12-10 0 42 0 40 6 438
2013-12-11 0 29 0 23 4 171
2013-12-12 1 32 0 22 3 225
2013-12-13 1 21 0 26 3 543
2013-12-14 0 11 0 23 4 807
2013-12-15 0 20 0 17 3 540
2013-12-16 5 50 0 22 4 009
2013-12-17 2 27 0 23 3 856
2013-12-18 1 53 0 23 4 339
2013-12-19 0 23 0 18 3 138
2013-12-20 0 5 0 16 1 779
2013-12-21 1 26 0 22 3 370
2013-12-22 3 27 0 22 4 250
2013-12-23 0 7 1 16 2 431
2013-12-24 1 16 0 14 2 139
2013-12-25 1 20 0 14 2 448
2013-12-26 0 14 0 17 3 918
2013-12-27 0 31 0 27 3 690
2013-12-28 2 32 0 22 4 302
2013-12-29 2 16 0 19 3 362
2013-12-30 3 13 0 15 3 871
2013-12-31 2 13 0 19 3 438
Novembre 2013 36 751 8 29 141 119
Octobre 2013 37 683 10 26 116 570
Septembre 2013 33 723 15 29 160 779
Août 2013 20 356 4 30 113 960
Juillet 2013 21 331 2 24 120 164
Juin 2013 40 731 5 34 119 512
Mai 2013 34 881 3 47 157 484
Avril 2013 38 799 8 33 124 279
2013-04-01 4 20 0 24 3 359
2013-04-02 1 47 0 21 4 467
2013-04-03 0 45 0 23 3 233
2013-04-04 0 33 0 16 2 834
2013-04-05 0 17 0 19 3 016
2013-04-06 2 17 1 21 4 302
2013-04-07 1 58 0 33 4 201
2013-04-08 0 22 0 17 4 107
2013-04-09 3 42 0 18 3 737
2013-04-10 1 19 0 16 3 054
2013-04-11 2 20 0 18 2 700
2013-04-12 2 22 1 17 2 910
2013-04-13 0 8 2 17 2 288
2013-04-14 0 22 0 16 2 273
2013-04-15 0 18 0 20 2 553
2013-04-16 2 35 2 23 4 161
2013-04-17 3 14 0 15 2 830
2013-04-18 0 20 0 21 2 765
2013-04-19 0 13 0 22 3 929
2013-04-20 1 9 0 17 4 630
2013-04-21 3 33 0 15 4 446
2013-04-22 5 26 1 18 5 097
2013-04-23 1 41 0 26 5 957
2013-04-24 2 35 0 21 7 277
2013-04-25 1 26 0 22 3 866
2013-04-26 1 35 0 22 3 466
2013-04-27 1 41 1 19 7 601
2013-04-28 1 28 0 26 7 931
2013-04-29 1 26 0 19 6 992
2013-04-30 0 7 0 18 4 297
Mars 2013 40 1 111 9 62 147 762
Février 2013 32 838 5 79 125 299
Janvier 2013 41 898 5 89 138 494
* 2012 446 10 690 67 157 1 274 957
Décembre 2012 57 1 411 4 45 150 137
Novembre 2012 46 1 137 8 25 112 399
Octobre 2012 45 1 068 7 25 80 970
Septembre 2012 37 876 11 38 107 023
Août 2012 30 595 5 41 95 032
2012-08-01 1 10 0 13 3 408
2012-08-02 0 21 0 19 2 532
2012-08-03 0 19 0 15 2 650
2012-08-04 0 3 0 14 1 909
2012-08-05 0 5 0 12 1 913
2012-08-06 1 18 1 15 2 288
2012-08-07 0 13 0 15 2 613
2012-08-08 2 12 0 13 3 743
2012-08-09 1 27 0 14 3 247
2012-08-10 0 14 0 41 3 163
2012-08-11 2 20 1 20 2 655
2012-08-12 0 22 0 13 2 610
2012-08-13 2 54 1 18 3 586
2012-08-14 1 22 0 15 3 230
2012-08-15 1 15 0 15 2 618
2012-08-16 3 23 0 14 3 024
2012-08-17 0 7 0 19 3 643
2012-08-18 0 4 0 14 2 628
2012-08-19 3 17 0 16 3 017
2012-08-20 2 20 0 14 3 296
2012-08-21 0 12 1 16 3 643
2012-08-22 2 14 0 18 3 501
2012-08-23 0 26 0 17 3 497
2012-08-24 0 14 0 15 3 563
2012-08-25 0 23 0 16 3 262
2012-08-26 2 15 0 14 3 447
2012-08-27 1 23 0 13 3 342
2012-08-28 1 4 0 17 2 817
2012-08-29 2 22 0 20 3 476
2012-08-30 2 67 1 18 3 756
2012-08-31 1 29 0 29 2 955
Juillet 2012 24 563 2 157 78 638
Juin 2012 39 984 10 33 88 620
Mai 2012 22 703 5 26 77 701
Avril 2012 33 714 4 33 95 151
Mars 2012 35 977 5 48 160 160
Février 2012 34 704 5 33 117 877
Janvier 2012 44 958 1 30 111 249
* 2011 822 21 877 118 48 1 861 895
Décembre 2011 68 1 315 7 36 141 929
Novembre 2011 94 1 539 4 36 150 015
2011-11-01 3 44 0 23 4 947
2011-11-02 6 67 0 20 4 287
2011-11-03 4 65 0 24 4 618
2011-11-04 10 91 0 19 4 838
2011-11-05 6 39 0 21 3 164
2011-11-06 4 77 0 21 4 609
2011-11-07 6 77 1 20 4 952
2011-11-08 2 48 0 19 3 243
2011-11-09 2 36 0 22 4 723
2011-11-10 4 55 0 19 3 721
2011-11-11 2 37 0 20 3 239
2011-11-12 2 15 0 21 4 391
2011-11-13 1 21 0 27 4 446
2011-11-14 4 60 0 27 4 759
2011-11-15 5 58 0 25 7 805
2011-11-16 2 50 0 23 3 902
2011-11-17 2 49 0 18 3 185
2011-11-18 1 67 0 26 6 226
2011-11-19 0 38 0 26 6 646
2011-11-20 2 61 1 36 8 056
2011-11-21 1 45 0 25 6 692
2011-11-22 1 31 0 30 6 080
2011-11-23 4 50 0 23 4 242
2011-11-24 1 40 0 25 5 667
2011-11-25 2 45 0 24 3 992
2011-11-26 2 43 1 19 3 693
2011-11-27 2 65 1 26 5 393
2011-11-28 4 77 0 31 5 999
2011-11-29 2 39 0 33 5 234
2011-11-30 7 49 0 29 7 266
Octobre 2011 81 1 597 13 41 169 207
Septembre 2011 96 1 991 19 24 158 540
Août 2011 68 1 372 16 48 135 201
Juillet 2011 57 1 156 10 30 112 626
Juin 2011 40 1 214 6 31 149 115
Mai 2011 64 1 997 8 39 181 997
Avril 2011 46 1 637 9 38 176 986
Mars 2011 54 2 388 6 31 211 307
Février 2011 59 2 656 5 46 128 248
Janvier 2011 95 3 015 15 44 146 724
* 2010 615 23 079 70 91 1 409 620
Décembre 2010 54 2 635 5 43 199 984
2010-12-01 4 200 0 33 5 797
2010-12-02 2 80 0 27 4 428
2010-12-03 0 92 0 23 3 768
2010-12-04 1 50 1 19 2 892
2010-12-05 1 52 0 26 3 390
2010-12-06 0 92 0 29 3 863
2010-12-07 1 113 0 34 4 176
2010-12-08 2 59 0 34 4 663
2010-12-09 1 112 1 30 4 738
2010-12-10 0 81 0 26 4 475
2010-12-11 2 57 0 29 3 894
2010-12-12 2 51 0 42 3 962
2010-12-13 3 63 0 32 4 381
2010-12-14 2 89 0 32 7 458
2010-12-15 2 146 0 32 8 138
2010-12-16 1 120 0 33 13 324
2010-12-17 2 134 0 43 25 752
2010-12-18 1 65 0 17 12 634
2010-12-19 3 59 0 21 14 562
2010-12-20 4 92 1 26 8 417
2010-12-21 1 83 1 24 6 202
2010-12-22 4 109 0 34 8 319
2010-12-23 2 97 0 31 4 509
2010-12-24 0 19 0 17 4 671
2010-12-25 2 33 0 33 4 728
2010-12-26 2 42 0 31 4 717
2010-12-27 3 132 1 41 5 593
2010-12-28 1 78 0 43 4 517
2010-12-29 2 117 0 31 4 767
2010-12-30 2 87 0 24 4 387
2010-12-31 1 31 0 24 2 862
Novembre 2010 59 2 475 6 49 127 779
Octobre 2010 56 2 811 15 58 134 942
Septembre 2010 53 1 528 8 29 95 249
Août 2010 32 1 287 6 33 89 617
Juillet 2010 34 1 637 5 32 97 290
2010-07-01 1 30 0 21 3 321
2010-07-02 1 52 1 16 3 049
2010-07-03 1 37 0 16 2 560
2010-07-04 0 16 0 13 2 269
2010-07-05 4 85 0 26 4 056
2010-07-06 0 91 0 21 4 081
2010-07-07 1 121 1 21 4 639
2010-07-08 1 73 0 24 3 929
2010-07-09 1 79 0 24 3 726
2010-07-10 0 27 0 17 2 693
2010-07-11 1 29 0 17 2 442
2010-07-12 0 62 0 32 4 813
2010-07-13 2 51 0 17 2 918
2010-07-14 1 36 0 21 3 013
2010-07-15 0 52 0 19 3 510
2010-07-16 1 70 0 16 3 362
2010-07-17 1 24 0 13 2 507
2010-07-18 4 28 0 14 2 203
2010-07-19 2 62 0 17 3 256
2010-07-20 0 28 0 22 2 386
2010-07-21 0 42 0 21 2 918
2010-07-22 3 41 2 28 2 834
2010-07-23 1 66 0 16 3 158
2010-07-24 0 49 1 24 2 730
2010-07-25 0 44 0 20 2 856
2010-07-26 1 74 0 20 3 201
2010-07-27 0 44 0 18 3 066
2010-07-28 6 60 0 24 2 949
2010-07-29 0 55 0 19 2 833
2010-07-30 0 72 0 22 3 484
2010-07-31 1 37 0 20 2 528
Juin 2010 46 2 137 3 28 109 648
Mai 2010 50 1 497 6 28 99 050
Avril 2010 45 1 888 3 26 102 219
Mars 2010 53 1 534 2 46 118 201
Février 2010 65 1 574 4 91 117 274
Janvier 2010 68 2 076 7 43 118 367
* 2009 752 28 223 96 159 970 278
Décembre 2009 39 2 001 5 54 122 418
Novembre 2009 59 3 138 6 38 117 432
Octobre 2009 67 3 218 11 18 122 232
Septembre 2009 73 2 730 14 159 92 082
Août 2009 47 1 405 8 15 61 919
Juillet 2009 68 1 737 11 21 67 267
2009-07-01 4 69 0 14 2 659
2009-07-02 1 67 0 14 2 889
2009-07-03 3 120 2 13 3 026
2009-07-04 1 34 2 12 1 683
2009-07-05 3 64 0 12 1 809
2009-07-06 1 84 1 13 2 368
2009-07-07 1 48 0 11 1 662
2009-07-08 1 41 0 15 1 638
2009-07-09 1 44 1 10 1 732
2009-07-10 2 66 0 14 2 604
2009-07-11 0 31 0 21 1 808
2009-07-12 3 59 1 13 2 004
2009-07-13 1 32 0 18 2 007
2009-07-14 3 33 0 12 1 611
2009-07-15 0 53 0 13 1 922
2009-07-16 1 60 0 12 1 847
2009-07-17 4 83 1 11 2 287
2009-07-18 5 30 1 9 1 496
2009-07-19 3 31 0 8 1 392
2009-07-20 4 127 2 13 3 012
2009-07-21 1 71 0 10 2 792
2009-07-22 5 65 0 11 2 902
2009-07-23 3 53 0 11 2 311
2009-07-24 2 42 0 12 4 785
2009-07-25 1 24 0 10 1 411
2009-07-26 0 18 0 8 1 221
2009-07-27 7 76 0 11 2 378
2009-07-28 3 67 0 12 2 057
2009-07-29 1 39 0 13 1 662
2009-07-30 2 35 0 8 2 204
2009-07-31 1 71 0 9 2 088
Juin 2009 63 2 759 4 37 72 789
Mai 2009 46 2 166 6 16 66 386
Avril 2009 101 2 850 6 16 73 303
Mars 2009 80 3 538 7 17 83 610
2009-03-01 2 54 0 15 1 561
2009-03-02 8 178 2 16 4 208
2009-03-03 1 86 0 11 2 528
2009-03-04 1 39 0 15 1 730
2009-03-05 1 32 0 12 1 412
2009-03-06 0 34 0 10 2 207
2009-03-07 8 30 0 10 1 601
2009-03-08 2 122 0 17 2 214
2009-03-09 4 189 0 12 3 447
2009-03-10 2 93 0 12 2 867
2009-03-11 1 79 0 9 2 060
2009-03-12 1 101 0 9 2 336
2009-03-13 3 107 0 11 2 370
2009-03-14 0 47 0 10 1 454
2009-03-15 3 95 0 10 2 287
2009-03-16 2 149 0 15 3 335
2009-03-17 3 88 0 10 2 474
2009-03-18 1 117 2 11 2 993
2009-03-19 0 145 0 14 3 058
2009-03-20 0 159 0 14 3 545
2009-03-21 2 45 1 9 1 470
2009-03-22 2 143 0 11 2 597
2009-03-23 3 163 0 13 3 325
2009-03-24 6 212 0 11 3 583
2009-03-25 6 222 0 12 4 229
2009-03-26 7 166 0 14 3 647
2009-03-27 3 168 0 12 3 580
2009-03-28 0 67 1 8 1 864
2009-03-29 3 123 1 11 2 814
2009-03-30 5 184 0 15 3 914
2009-03-31 0 101 0 10 2 900
Février 2009 57 1 586 6 16 50 521
Janvier 2009 52 1 095 12 10 40 319
* 2008 334 4 655 56 26 234 055
Décembre 2008 36 663 7 12 28 104
2008-12-01 3 30 0 10 1 312
2008-12-02 0 30 0 7 1 279
2008-12-03 3 41 0 12 1 017
2008-12-04 2 33 0 7 1 133
2008-12-05 2 40 1 7 1 117
2008-12-06 0 7 0 5 831
2008-12-07 1 21 0 5 1 053
2008-12-08 1 30 0 8 1 116
2008-12-09 2 39 0 8 1 045
2008-12-10 0 13 0 6 555
2008-12-11 1 29 2 8 1 021
2008-12-12 0 29 1 9 1 230
2008-12-13 2 32 0 11 1 196
2008-12-14 3 17 1 8 973
2008-12-15 1 21 0 9 868
2008-12-16 3 51 1 9 1 403
2008-12-17 0 19 1 7 950
2008-12-18 1 7 0 10 889
2008-12-19 0 26 0 8 1 051
2008-12-20 2 19 0 8 964
2008-12-21 2 20 0 5 722
2008-12-22 0 10 0 5 689
2008-12-23 0 22 0 8 909
2008-12-24 0 8 0 4 427
2008-12-25 0 11 0 5 344
2008-12-26 2 17 0 6 566
2008-12-27 0 2 0 5 628
2008-12-28 1 8 0 5 684
2008-12-29 1 9 0 5 880
2008-12-30 1 8 0 5 575
2008-12-31 2 14 0 6 677
Novembre 2008 51 1 090 9 10 35 948
Octobre 2008 50 609 5 10 26 582
Septembre 2008 40 619 5 10 24 365
Août 2008 28 252 6 9 21 916
Juillet 2008 20 256 5 7 16 733
Juin 2008 17 363 6 26 18 903
Mai 2008 17 180 2 10 13 320
Avril 2008 16 146 3 8 16 063
2008-04-01 1 11 0 4 553
2008-04-02 0 4 0 7 503
2008-04-03 2 14 1 4 1 518
2008-04-04 0 6 0 0 1 184
2008-04-05 0 2 0 3 955
2008-04-06 1 4 0 4 680
2008-04-07 1 6 0 4 582
2008-04-08 0 6 0 4 448
2008-04-09 0 1 0 3 419
2008-04-10 1 1 0 5 432
2008-04-11 0 1 0 3 780
2008-04-12 0 4 0 5 909
2008-04-13 0 4 0 3 540
2008-04-14 0 3 1 0 516
2008-04-15 0 1 0 0 343
2008-04-16 0 3 0 0 602
2008-04-17 0 0 0 8 283
2008-04-18 0 1 0 0 415
2008-04-19 0 1 1 4 429
2008-04-20 2 3 0 4 410
2008-04-21 3 15 0 4 521
2008-04-22 0 14 0 6 672
2008-04-23 1 12 0 4 399
2008-04-24 0 3 0 4 350
2008-04-25 0 2 0 4 190
2008-04-26 2 4 0 5 229
2008-04-27 0 2 0 4 308
2008-04-28 0 1 0 4 265
2008-04-29 0 4 0 4 250
2008-04-30 2 13 0 5 378
Mars 2008 18 158 1 9 12 835
Février 2008 19 155 2 9 9 679
Janvier 2008 22 164 5 7 9 607
* 2007 276 2 246 55 9 102 999
Décembre 2007 21 167 5 8 17 081
Novembre 2007 20 168 3 6 8 467
Octobre 2007 21 147 4 5 8 193
Septembre 2007 22 183 4 9 9 896
Août 2007 23 226 2 6 9 096
2007-08-01 1 11 0 0 281
2007-08-02 0 4 0 4 224
2007-08-03 2 13 1 0 357
2007-08-04 0 5 0 3 265
2007-08-05 0 0 0 1 129
2007-08-06 1 1 0 2 171
2007-08-07 1 2 0 0 211
2007-08-08 0 0 0 2 132
2007-08-09 1 3 0 2 133
2007-08-10 0 1 0 2 177
2007-08-11 0 0 0 2 104
2007-08-12 0 0 0 3 97
2007-08-13 0 3 0 3 220
2007-08-14 0 0 0 3 199
2007-08-15 0 0 0 0 163
2007-08-16 1 4 0 2 166
2007-08-17 0 6 0 5 274
2007-08-18 0 3 1 3 274
2007-08-19 1 4 0 3 258
2007-08-20 1 14 0 4 417
2007-08-21 2 9 0 3 352
2007-08-22 1 18 0 3 434
2007-08-23 1 12 0 4 412
2007-08-24 0 7 0 6 267
2007-08-25 0 7 0 5 265
2007-08-26 2 11 0 4 363
2007-08-27 1 27 0 6 720
2007-08-28 1 17 0 0 580
2007-08-29 2 9 0 0 492
2007-08-30 3 27 0 5 648
2007-08-31 1 8 0 5 311
Juillet 2007 18 127 1 4 10 165
Juin 2007 25 309 2 6 13 196
Mai 2007 30 315 8 7 11 830
Avril 2007 44 428 13 9 13 382
2007-04-01 0 21 1 4 390
2007-04-02 4 25 0 6 522
2007-04-03 4 21 1 6 568
2007-04-04 3 41 1 8 1 017
2007-04-05 2 58 0 6 1 236
2007-04-06 1 29 0 6 771
2007-04-07 2 16 1 4 539
2007-04-08 0 6 0 3 243
2007-04-09 2 12 0 6 273
2007-04-10 0 6 0 6 265
2007-04-11 1 7 0 8 508
2007-04-12 1 4 1 8 599
2007-04-13 1 8 1 9 612
2007-04-14 1 2 0 4 309
2007-04-15 0 5 0 5 135
2007-04-16 0 11 0 4 467
2007-04-17 0 4 1 4 250
2007-04-18 1 8 0 7 274
2007-04-19 6 17 0 6 489
2007-04-20 1 23 1 5 463
2007-04-21 1 9 0 6 307
2007-04-22 1 11 2 4 277
2007-04-23 2 10 1 6 377
2007-04-24 1 22 0 5 524
2007-04-25 2 17 1 6 389
2007-04-26 3 12 0 6 502
2007-04-27 1 11 0 4 361
2007-04-28 2 3 0 3 172
2007-04-29 0 8 1 5 310
2007-04-30 1 1 0 5 233
Mars 2007 52 176 13 4 1 693